sat.trackr.live / text

‹ back to catalog

STARLINK-11424 [DTC]

NORAD 61949 · 2024-209L

PAYLOAD ACTIVE UNKNOWN

§ Identity

Operator
Country
US
Launch date
2024-11-14
Launch site
AFWTR
Launch vehicle
Mass (kg)
RCS (m²)

Purposes: comms

External: N2YO · Heavens-Above · Gunter

§ Orbital elements

Epoch: 2026-05-24T23:49:04.547136Z

Period
91.73 min
Inclination
53.1574°
Eccentricity
0.0000737
Mean motion
15.69769815 rev/d
Perigee alt
359.1 km
Apogee alt
360.1 km
Semi-major
6,737.7 km
B*
1.5742e-3
RAAN
355.0019°
Arg perigee
68.6826°
Mean anomaly
291.4270°
Rev number
8,866

§ Raw data

STARLINK-11424 [DTC]1 61949U 24209L   26144.99241374  .00195165  00000+0  15742-2 0  99992 61949  53.1574 355.0019 0000737  68.6826 291.4270 15.69769815 88662

JSON: /api/v1/satellites/61949 · /tle

For live sub-satellite position, see the globe view (requires WebGL).

§ Visibility from observer

Set your observer location to see the next 7 days of passes ≥ 10°. The values pass through the URL so the page stays shareable.

No JS? Fill the form by hand. The geolocation button needs JavaScript.